contact:dominique.lefevre@mio.osupytheas.fr, maurice.libes@osupytheas.fr, didier.mallarino@osupytheas.fr
Project:EMSO http://www.emso-fr.org/EMSO-France
Depth: 2436.0 m
Title:EMSO Ligure Ouest : Data MII capteur MICROCAT
DateTime_Computer,Latitude,Longitude,Temperature,Conductivity,Pressure,DateTime_Instrument
DateTime_Computer,Latitude,Longitude,degC,S m-1,dbar,DateTime_Instrument
2021-02-19T00:00:56Z,42.805,6.029,13.2982,4.59988,2470.203,2021-2-19T02:02:00Z
2021-02-19T00:03:59Z,42.805,6.029,13.2978,4.59986,2470.18,2021-2-19T02:05:03Z
2021-02-19T00:07:02Z,42.805,6.029,13.2980,4.59986,2470.203,2021-2-19T02:08:06Z
2021-02-19T00:10:05Z,42.805,6.029,13.2979,4.59988,2470.203,2021-2-19T02:11:09Z
2021-02-19T00:13:08Z,42.805,6.029,13.2983,4.59987,2470.203,2021-2-19T02:14:12Z
2021-02-19T00:16:11Z,42.805,6.029,13.2982,4.59988,2470.203,2021-2-19T02:17:15Z
2021-02-19T00:19:14Z,42.805,6.029,13.2979,4.59986,2470.203,2021-2-19T02:20:19Z
2021-02-19T00:22:17Z,42.805,6.029,13.2976,4.59988,2470.217,2021-2-19T02:23:22Z
2021-02-19T00:25:21Z,42.805,6.029,13.2981,4.59988,2470.194,2021-2-19T02:26:25Z
2021-02-19T00:28:24Z,42.805,6.029,13.2979,4.59987,2470.217,2021-2-19T02:29:28Z
2021-02-19T00:31:27Z,42.805,6.029,13.2983,4.59986,2470.194,2021-2-19T02:32:31Z
2021-02-19T00:34:30Z,42.805,6.029,13.2982,4.59986,2470.203,2021-2-19T02:35:34Z
2021-02-19T00:37:33Z,42.805,6.029,13.2976,4.59991,2470.194,2021-2-19T02:38:37Z
2021-02-19T00:40:36Z,42.805,6.029,13.2982,4.59988,2470.203,2021-2-19T02:41:40Z
2021-02-19T00:43:39Z,42.805,6.029,13.2980,4.59986,2470.18,2021-2-19T02:44:43Z
2021-02-19T00:46:42Z,42.805,6.029,13.2979,4.59987,2470.203,2021-2-19T02:47:47Z
2021-02-19T00:49:46Z,42.805,6.029,13.2983,4.59986,2470.217,2021-2-19T02:50:50Z
2021-02-19T00:52:49Z,42.805,6.029,13.2979,4.59985,2470.18,2021-2-19T02:53:53Z
2021-02-19T00:55:52Z,42.805,6.029,13.2981,4.59987,2470.18,2021-2-19T02:56:56Z
2021-02-19T00:58:55Z,42.805,6.029,13.2982,4.59988,2470.18,2021-2-19T02:59:59Z
2021-02-19T01:01:58Z,42.805,6.029,13.2981,4.59985,2470.156,2021-2-19T03:03:02Z
2021-02-19T01:05:01Z,42.805,6.029,13.2983,4.59986,2470.194,2021-2-19T03:06:05Z
2021-02-19T01:08:04Z,42.805,6.029,13.2980,4.59988,2470.217,2021-2-19T03:09:09Z
2021-02-19T01:11:07Z,42.805,6.029,13.2982,4.59987,2470.203,2021-2-19T03:12:12Z
2021-02-19T01:14:11Z,42.805,6.029,13.2977,4.59985,2470.171,2021-2-19T03:15:15Z
2021-02-19T01:17:14Z,42.805,6.029,13.2978,4.59987,2470.143,2021-2-19T03:18:18Z
2021-02-19T01:20:17Z,42.805,6.029,13.2981,4.59991,2470.194,2021-2-19T03:21:21Z
2021-02-19T01:23:20Z,42.805,6.029,13.2979,4.59986,2470.194,2021-2-19T03:24:24Z
2021-02-19T01:26:23Z,42.805,6.029,13.2980,4.59987,2470.217,2021-2-19T03:27:27Z
2021-02-19T01:29:26Z,42.805,6.029,13.2979,4.59985,2470.217,2021-2-19T03:30:30Z
2021-02-19T01:32:29Z,42.805,6.029,13.2982,4.59984,2470.18,2021-2-19T03:33:33Z
2021-02-19T01:35:32Z,42.805,6.029,13.2985,4.59986,2470.194,2021-2-19T03:36:37Z
2021-02-19T01:38:36Z,42.805,6.029,13.2980,4.59985,2470.194,2021-2-19T03:39:40Z
2021-02-19T01:41:39Z,42.805,6.029,13.2981,4.59986,2470.194,2021-2-19T03:42:43Z
2021-02-19T01:44:42Z,42.805,6.029,13.2982,4.59985,2470.171,2021-2-19T03:45:46Z
2021-02-19T01:47:45Z,42.805,6.029,13.2979,4.59988,2470.156,2021-2-19T03:48:49Z
2021-02-19T01:50:48Z,42.805,6.029,13.2979,4.59986,2470.133,2021-2-19T03:51:52Z
2021-02-19T01:53:51Z,42.805,6.029,13.2979,4.59987,2470.171,2021-2-19T03:54:55Z
2021-02-19T01:56:54Z,42.805,6.029,13.2982,4.59987,2470.18,2021-2-19T03:57:59Z
2021-02-19T01:59:57Z,42.805,6.029,13.2980,4.59987,2470.171,2021-2-19T04:01:02Z
2021-02-19T02:03:01Z,42.805,6.029,13.2982,4.59986,2470.194,2021-2-19T04:04:05Z
2021-02-19T02:06:04Z,42.805,6.029,13.2979,4.59983,2470.171,2021-2-19T04:07:08Z
2021-02-19T02:09:07Z,42.805,6.029,13.2977,4.59986,2470.194,2021-2-19T04:10:11Z
2021-02-19T02:12:10Z,42.805,6.029,13.2980,4.59986,2470.18,2021-2-19T04:13:14Z
2021-02-19T02:15:13Z,42.805,6.029,13.2979,4.59987,2470.156,2021-2-19T04:16:17Z
2021-02-19T02:18:16Z,42.805,6.029,13.2979,4.59986,2470.18,2021-2-19T04:19:20Z
2021-02-19T02:21:19Z,42.805,6.029,13.2977,4.59986,2470.133,2021-2-19T04:22:23Z
2021-02-19T02:24:22Z,42.805,6.029,13.2982,4.59984,2470.18,2021-2-19T04:25:27Z
2021-02-19T02:27:26Z,42.805,6.029,13.2982,4.59984,2470.194,2021-2-19T04:28:30Z
2021-02-19T02:30:29Z,42.805,6.029,13.2981,4.59986,2470.18,2021-2-19T04:31:33Z
2021-02-19T02:33:32Z,42.805,6.029,13.2980,4.59986,2470.156,2021-2-19T04:34:36Z
2021-02-19T02:36:35Z,42.805,6.029,13.2979,4.59984,2470.156,2021-2-19T04:37:39Z
2021-02-19T02:39:38Z,42.805,6.029,13.2976,4.59984,2470.156,2021-2-19T04:40:42Z
2021-02-19T02:42:41Z,42.805,6.029,13.2980,4.59985,2470.156,2021-2-19T04:43:45Z
2021-02-19T02:45:44Z,42.805,6.029,13.2979,4.59986,2470.156,2021-2-19T04:46:48Z
2021-02-19T02:48:47Z,42.805,6.029,13.2979,4.59985,2470.156,2021-2-19T04:49:52Z
2021-02-19T02:51:51Z,42.805,6.029,13.2978,4.59986,2470.171,2021-2-19T04:52:55Z
2021-02-19T02:54:54Z,42.805,6.029,13.2974,4.59986,2470.156,2021-2-19T04:55:58Z
2021-02-19T02:57:57Z,42.805,6.029,13.2980,4.59985,2470.171,2021-2-19T04:59:01Z
2021-02-19T03:01:00Z,42.805,6.029,13.2979,4.59986,2470.156,2021-2-19T05:02:04Z
2021-02-19T03:04:03Z,42.805,6.029,13.2980,4.59986,2470.147,2021-2-19T05:05:07Z
2021-02-19T03:07:06Z,42.805,6.029,13.2976,4.59984,2470.171,2021-2-19T05:08:10Z
2021-02-19T03:10:09Z,42.805,6.029,13.2979,4.59988,2470.133,2021-2-19T05:11:13Z
2021-02-19T03:13:12Z,42.805,6.029,13.2977,4.59985,2470.147,2021-2-19T05:14:17Z
2021-02-19T03:16:15Z,42.805,6.029,13.2978,4.59986,2470.171,2021-2-19T05:17:20Z
2021-02-19T03:19:19Z,42.805,6.029,13.2979,4.59986,2470.156,2021-2-19T05:20:23Z
2021-02-19T03:22:22Z,42.805,6.029,13.2979,4.59985,2470.147,2021-2-19T05:23:26Z
2021-02-19T03:25:25Z,42.805,6.029,13.2980,4.59984,2470.147,2021-2-19T05:26:29Z
2021-02-19T03:28:28Z,42.805,6.029,13.2978,4.59983,2470.203,2021-2-19T05:29:32Z
2021-02-19T03:31:31Z,42.805,6.029,13.2980,4.59983,2470.11,2021-2-19T05:32:35Z
2021-02-19T03:34:34Z,42.805,6.029,13.2977,4.59985,2470.156,2021-2-19T05:35:38Z
2021-02-19T03:37:37Z,42.805,6.029,13.2979,4.59986,2470.133,2021-2-19T05:38:42Z
2021-02-19T03:40:41Z,42.805,6.029,13.2976,4.59984,2470.11,2021-2-19T05:41:45Z
2021-02-19T03:43:44Z,42.805,6.029,13.2978,4.59985,2470.147,2021-2-19T05:44:48Z
2021-02-19T03:46:47Z,42.805,6.029,13.2978,4.59983,2470.147,2021-2-19T05:47:51Z
2021-02-19T03:49:50Z,42.805,6.029,13.2978,4.59983,2470.171,2021-2-19T05:50:54Z
2021-02-19T03:52:53Z,42.805,6.029,13.2976,4.59984,2470.156,2021-2-19T05:53:57Z
2021-02-19T03:55:56Z,42.805,6.029,13.2977,4.59983,2470.171,2021-2-19T05:57:00Z
2021-02-19T03:58:59Z,42.805,6.029,13.2977,4.59983,2470.171,2021-2-19T06:00:03Z
2021-02-19T04:02:02Z,42.805,6.029,13.2981,4.59983,2470.171,2021-2-19T06:03:07Z
2021-02-19T04:05:05Z,42.805,6.029,13.2981,4.59986,2470.18,2021-2-19T06:06:10Z
2021-02-19T04:08:09Z,42.805,6.029,13.2980,4.59985,2470.147,2021-2-19T06:09:13Z
2021-02-19T04:11:12Z,42.805,6.029,13.2979,4.59985,2470.156,2021-2-19T06:12:16Z
2021-02-19T04:14:15Z,42.805,6.029,13.2983,4.59985,2470.133,2021-2-19T06:15:19Z
2021-02-19T04:17:18Z,42.805,6.029,13.2980,4.59985,2470.133,2021-2-19T06:18:22Z
2021-02-19T04:20:21Z,42.805,6.029,13.2979,4.59986,2470.171,2021-2-19T06:21:25Z
2021-02-19T04:23:24Z,42.805,6.029,13.2979,4.59986,2470.171,2021-2-19T06:24:28Z
2021-02-19T04:26:27Z,42.805,6.029,13.2981,4.59985,2470.119,2021-2-19T06:27:32Z
2021-02-19T04:29:30Z,42.805,6.029,13.2982,4.59985,2470.133,2021-2-19T06:30:35Z
2021-02-19T04:32:34Z,42.805,6.029,13.2979,4.59985,2470.133,2021-2-19T06:33:38Z
2021-02-19T04:35:37Z,42.805,6.029,13.2979,4.59983,2470.171,2021-2-19T06:36:41Z
2021-02-19T04:38:40Z,42.805,6.029,13.2982,4.59987,2470.147,2021-2-19T06:39:44Z
2021-02-19T04:41:43Z,42.805,6.029,13.2979,4.59984,2470.133,2021-2-19T06:42:47Z
2021-02-19T04:44:46Z,42.805,6.029,13.2980,4.59985,2470.194,2021-2-19T06:45:50Z
2021-02-19T04:47:49Z,42.805,6.029,13.2979,4.59983,2470.11,2021-2-19T06:48:53Z
2021-02-19T04:50:52Z,42.805,6.029,13.2978,4.59986,2470.11,2021-2-19T06:51:57Z
2021-02-19T04:53:55Z,42.805,6.029,13.2977,4.59986,2470.11,2021-2-19T06:55:00Z
2021-02-19T04:56:59Z,42.805,6.029,13.2981,4.59984,2470.147,2021-2-19T06:58:03Z
2021-02-19T05:00:02Z,42.805,6.029,13.2982,4.59986,2470.147,2021-2-19T07:01:06Z
2021-02-19T05:03:05Z,42.805,6.029,13.2978,4.59985,2470.133,2021-2-19T07:04:09Z
2021-02-19T05:06:08Z,42.805,6.029,13.2977,4.59984,2470.133,2021-2-19T07:07:12Z
2021-02-19T05:09:11Z,42.805,6.029,13.2979,4.59985,2470.133,2021-2-19T07:10:15Z
2021-02-19T05:12:14Z,42.805,6.029,13.2977,4.59982,2470.156,2021-2-19T07:13:18Z
2021-02-19T05:15:17Z,42.805,6.029,13.2979,4.59985,2470.133,2021-2-19T07:16:22Z
2021-02-19T05:18:20Z,42.805,6.029,13.2982,4.59983,2470.133,2021-2-19T07:19:25Z
2021-02-19T05:21:24Z,42.805,6.029,13.2980,4.59985,2470.133,2021-2-19T07:22:28Z
2021-02-19T05:24:27Z,42.805,6.029,13.2980,4.59985,2470.156,2021-2-19T07:25:31Z
2021-02-19T05:27:30Z,42.805,6.029,13.2974,4.59982,2470.156,2021-2-19T07:28:34Z
2021-02-19T05:30:33Z,42.805,6.029,13.2976,4.59983,2470.11,2021-2-19T07:31:37Z
2021-02-19T05:33:36Z,42.805,6.029,13.2981,4.59985,2470.133,2021-2-19T07:34:40Z
2021-02-19T05:36:39Z,42.805,6.029,13.2981,4.59983,2470.11,2021-2-19T07:37:43Z
2021-02-19T05:39:42Z,42.805,6.029,13.2978,4.59984,2470.11,2021-2-19T07:40:46Z
2021-02-19T05:42:45Z,42.805,6.029,13.2982,4.59983,2470.133,2021-2-19T07:43:50Z
2021-02-19T05:45:49Z,42.805,6.029,13.2981,4.59984,2470.156,2021-2-19T07:46:53Z
2021-02-19T05:48:52Z,42.805,6.029,13.2982,4.59984,2470.11,2021-2-19T07:49:56Z
2021-02-19T05:51:55Z,42.805,6.029,13.2983,4.59983,2470.133,2021-2-19T07:52:59Z
2021-02-19T05:54:58Z,42.805,6.029,13.2978,4.59987,2470.171,2021-2-19T07:56:02Z
2021-02-19T05:58:01Z,42.805,6.029,13.2979,4.59986,2470.147,2021-2-19T07:59:05Z
2021-02-19T06:01:04Z,42.805,6.029,13.2982,4.59982,2470.133,2021-2-19T08:02:08Z
2021-02-19T06:04:07Z,42.805,6.029,13.2982,4.59982,2470.11,2021-2-19T08:05:11Z
2021-02-19T06:07:10Z,42.805,6.029,13.2979,4.59983,2470.133,2021-2-19T08:08:15Z
2021-02-19T06:10:14Z,42.805,6.029,13.2979,4.59983,2470.087,2021-2-19T08:11:18Z
2021-02-19T06:13:17Z,42.805,6.029,13.2981,4.59983,2470.133,2021-2-19T08:14:21Z
2021-02-19T06:16:20Z,42.805,6.029,13.2979,4.59985,2470.147,2021-2-19T08:17:24Z
2021-02-19T06:19:23Z,42.805,6.029,13.2984,4.59983,2470.147,2021-2-19T08:20:27Z
2021-02-19T06:22:26Z,42.805,6.029,13.2981,4.59987,2470.096,2021-2-19T08:23:30Z
2021-02-19T06:25:29Z,42.805,6.029,13.2981,4.59985,2470.133,2021-2-19T08:26:33Z
2021-02-19T06:28:32Z,42.805,6.029,13.2980,4.59984,2470.087,2021-2-19T08:29:36Z
2021-02-19T06:31:35Z,42.805,6.029,13.2982,4.59990,2470.133,2021-2-19T08:32:40Z
2021-02-19T06:34:38Z,42.805,6.029,13.2983,4.59984,2470.147,2021-2-19T08:35:43Z
2021-02-19T06:37:42Z,42.805,6.029,13.2979,4.59984,2470.11,2021-2-19T08:38:46Z
2021-02-19T06:40:45Z,42.805,6.029,13.2978,4.59988,2470.147,2021-2-19T08:41:49Z
2021-02-19T06:43:48Z,42.805,6.029,13.2977,4.59986,2470.147,2021-2-19T08:44:52Z
2021-02-19T06:46:51Z,42.805,6.029,13.2981,4.59986,2470.11,2021-2-19T08:47:55Z
2021-02-19T06:49:54Z,42.805,6.029,13.2983,4.59988,2470.11,2021-2-19T08:50:58Z
2021-02-19T06:52:57Z,42.805,6.029,13.2979,4.59988,2470.156,2021-2-19T08:54:01Z
2021-02-19T06:56:00Z,42.805,6.029,13.2983,4.59989,2470.11,2021-2-19T08:57:05Z
2021-02-19T06:59:03Z,42.805,6.029,13.2983,4.59986,2470.11,2021-2-19T09:00:08Z
2021-02-19T07:02:07Z,42.805,6.029,13.2981,4.59992,2470.11,2021-2-19T09:03:11Z
2021-02-19T07:05:10Z,42.805,6.029,13.2984,4.59996,2470.147,2021-2-19T09:06:14Z
2021-02-19T07:08:13Z,42.805,6.029,13.2982,4.59991,2470.147,2021-2-19T09:09:17Z
2021-02-19T07:11:16Z,42.805,6.029,13.2979,4.59996,2470.11,2021-2-19T09:12:20Z
2021-02-19T07:14:19Z,42.805,6.029,13.2980,4.59991,2470.11,2021-2-19T09:15:23Z
2021-02-19T07:17:22Z,42.805,6.029,13.2982,4.59988,2470.147,2021-2-19T09:18:26Z
2021-02-19T07:20:25Z,42.805,6.029,13.2977,4.59997,2470.133,2021-2-19T09:21:30Z
2021-02-19T07:23:28Z,42.805,6.029,13.2981,4.59991,2470.124,2021-2-19T09:24:33Z
2021-02-19T07:26:32Z,42.805,6.029,13.2982,4.59989,2470.156,2021-2-19T09:27:36Z
2021-02-19T07:29:35Z,42.805,6.029,13.2975,4.59989,2470.133,2021-2-19T09:30:39Z
2021-02-19T07:32:38Z,42.805,6.029,13.2979,4.59988,2470.124,2021-2-19T09:33:42Z
2021-02-19T07:35:41Z,42.805,6.029,13.2980,4.59988,2470.171,2021-2-19T09:36:45Z
2021-02-19T07:38:44Z,42.805,6.029,13.2982,4.59988,2470.171,2021-2-19T09:39:48Z
2021-02-19T07:41:47Z,42.805,6.029,13.2982,4.59988,2470.171,2021-2-19T09:42:51Z
2021-02-19T07:44:50Z,42.805,6.029,13.2982,4.59989,2470.133,2021-2-19T09:45:55Z
2021-02-19T07:47:53Z,42.805,6.029,13.2980,4.59986,2470.171,2021-2-19T09:48:58Z
2021-02-19T07:50:57Z,42.805,6.029,13.2979,4.59986,2470.171,2021-2-19T09:52:01Z
2021-02-19T07:54:00Z,42.805,6.029,13.2981,4.59987,2470.096,2021-2-19T09:55:04Z
2021-02-19T07:57:03Z,42.805,6.029,13.2983,4.59987,2470.171,2021-2-19T09:58:07Z
2021-02-19T08:00:06Z,42.805,6.029,13.2982,4.59987,2470.194,2021-2-19T10:01:10Z
2021-02-19T08:03:09Z,42.805,6.029,13.2980,4.59988,2470.156,2021-2-19T10:04:13Z
2021-02-19T08:06:12Z,42.805,6.029,13.2982,4.59986,2470.147,2021-2-19T10:07:16Z
2021-02-19T08:09:15Z,42.805,6.029,13.2975,4.59984,2470.171,2021-2-19T10:10:19Z
2021-02-19T08:12:18Z,42.805,6.029,13.2981,4.59988,2470.171,2021-2-19T10:13:23Z
2021-02-19T08:15:22Z,42.805,6.029,13.2979,4.59989,2470.156,2021-2-19T10:16:26Z
2021-02-19T08:18:25Z,42.805,6.029,13.2982,4.59986,2470.156,2021-2-19T10:19:29Z
2021-02-19T08:21:28Z,42.805,6.029,13.2979,4.59985,2470.147,2021-2-19T10:22:32Z
2021-02-19T08:24:31Z,42.805,6.029,13.2980,4.59989,2470.156,2021-2-19T10:25:35Z
2021-02-19T08:27:34Z,42.805,6.029,13.2979,4.59988,2470.156,2021-2-19T10:28:38Z
2021-02-19T08:30:37Z,42.805,6.029,13.2985,4.59986,2470.203,2021-2-19T10:31:41Z
2021-02-19T08:33:40Z,42.805,6.029,13.2986,4.59991,2470.194,2021-2-19T10:34:45Z
2021-02-19T08:36:43Z,42.805,6.029,13.2979,4.59990,2470.156,2021-2-19T10:37:48Z
2021-02-19T08:39:47Z,42.805,6.029,13.2982,4.59987,2470.194,2021-2-19T10:40:51Z
2021-02-19T08:42:50Z,42.805,6.029,13.2980,4.59988,2470.171,2021-2-19T10:43:54Z
2021-02-19T08:45:53Z,42.805,6.029,13.2978,4.59990,2470.156,2021-2-19T10:46:57Z
2021-02-19T08:48:56Z,42.805,6.029,13.2980,4.59991,2470.194,2021-2-19T10:50:00Z
2021-02-19T08:51:59Z,42.805,6.029,13.2979,4.59991,2470.203,2021-2-19T10:53:03Z
2021-02-19T08:55:02Z,42.805,6.029,13.2979,4.59989,2470.156,2021-2-19T10:56:06Z
2021-02-19T08:58:05Z,42.805,6.029,13.2982,4.59989,2470.203,2021-2-19T10:59:10Z
2021-02-19T09:01:08Z,42.805,6.029,13.2981,4.59988,2470.171,2021-2-19T11:02:13Z
2021-02-19T09:04:12Z,42.805,6.029,13.2979,4.59989,2470.156,2021-2-19T11:05:16Z
2021-02-19T09:07:15Z,42.805,6.029,13.2983,4.59990,2470.194,2021-2-19T11:08:19Z
2021-02-19T09:10:18Z,42.805,6.029,13.2979,4.59988,2470.194,2021-2-19T11:11:22Z
2021-02-19T09:13:21Z,42.805,6.029,13.2982,4.59988,2470.18,2021-2-19T11:14:25Z
2021-02-19T09:16:24Z,42.805,6.029,13.2979,4.59988,2470.156,2021-2-19T11:17:28Z
2021-02-19T09:19:27Z,42.805,6.029,13.2979,4.59988,2470.156,2021-2-19T11:20:31Z
2021-02-19T09:22:30Z,42.805,6.029,13.2979,4.59990,2470.18,2021-2-19T11:23:35Z
2021-02-19T09:25:33Z,42.805,6.029,13.2984,4.59988,2470.18,2021-2-19T11:26:38Z
2021-02-19T09:28:37Z,42.805,6.029,13.2982,4.59988,2470.171,2021-2-19T11:29:41Z
2021-02-19T09:31:40Z,42.805,6.029,13.2979,4.59989,2470.156,2021-2-19T11:32:44Z
2021-02-19T09:34:43Z,42.805,6.029,13.2979,4.59991,2470.194,2021-2-19T11:35:47Z
2021-02-19T09:37:46Z,42.805,6.029,13.2986,4.59990,2470.194,2021-2-19T11:38:50Z
2021-02-19T09:40:49Z,42.805,6.029,13.2977,4.59988,2470.217,2021-2-19T11:41:53Z
2021-02-19T09:43:52Z,42.805,6.029,13.2979,4.59989,2470.203,2021-2-19T11:44:56Z
2021-02-19T09:46:55Z,42.805,6.029,13.2980,4.59991,2470.203,2021-2-19T11:48:00Z
2021-02-19T09:49:59Z,42.805,6.029,13.2982,4.59989,2470.217,2021-2-19T11:51:03Z
2021-02-19T09:53:02Z,42.805,6.029,13.2980,4.59989,2470.18,2021-2-19T11:54:06Z
2021-02-19T09:56:05Z,42.805,6.029,13.2982,4.59987,2470.18,2021-2-19T11:57:09Z
2021-02-19T09:59:08Z,42.805,6.029,13.2979,4.59989,2470.203,2021-2-19T12:00:12Z
2021-02-19T10:02:11Z,42.805,6.029,13.2977,4.59989,2470.217,2021-2-19T12:03:15Z
2021-02-19T10:05:14Z,42.805,6.029,13.2982,4.59989,2470.203,2021-2-19T12:06:18Z
2021-02-19T10:08:17Z,42.805,6.029,13.2981,4.59988,2470.24,2021-2-19T12:09:21Z
2021-02-19T10:11:20Z,42.805,6.029,13.2979,4.59990,2470.203,2021-2-19T12:12:25Z
2021-02-19T10:14:24Z,42.805,6.029,13.2977,4.59988,2470.24,2021-2-19T12:15:28Z
2021-02-19T10:17:27Z,42.805,6.029,13.2986,4.59990,2470.227,2021-2-19T12:18:31Z
2021-02-19T10:20:30Z,42.805,6.029,13.2980,4.59992,2470.203,2021-2-19T12:21:34Z
2021-02-19T10:23:33Z,42.805,6.029,13.2977,4.59988,2470.24,2021-2-19T12:24:37Z
2021-02-19T10:26:36Z,42.805,6.029,13.2981,4.59988,2470.24,2021-2-19T12:27:40Z
2021-02-19T10:29:39Z,42.805,6.029,13.2982,4.59990,2470.227,2021-2-19T12:30:43Z
2021-02-19T10:32:42Z,42.805,6.029,13.2981,4.59989,2470.264,2021-2-19T12:33:47Z
2021-02-19T10:35:45Z,42.805,6.029,13.2984,4.59989,2470.227,2021-2-19T12:36:50Z
2021-02-19T10:38:49Z,42.805,6.029,13.2982,4.59987,2470.203,2021-2-19T12:39:53Z
2021-02-19T10:41:52Z,42.805,6.029,13.2982,4.59988,2470.227,2021-2-19T12:42:56Z
2021-02-19T10:44:55Z,42.805,6.029,13.2979,4.59987,2470.24,2021-2-19T12:45:59Z
2021-02-19T10:47:58Z,42.805,6.029,13.2979,4.59987,2470.203,2021-2-19T12:49:02Z
2021-02-19T10:51:01Z,42.805,6.029,13.2985,4.59987,2470.227,2021-2-19T12:52:05Z
2021-02-19T10:54:04Z,42.805,6.029,13.2982,4.59988,2470.24,2021-2-19T12:55:08Z
2021-02-19T10:57:07Z,42.805,6.029,13.2983,4.59987,2470.227,2021-2-19T12:58:12Z
2021-02-19T11:00:10Z,42.805,6.029,13.2980,4.59987,2470.25,2021-2-19T13:01:15Z
2021-02-19T11:03:14Z,42.805,6.029,13.2978,4.59988,2470.227,2021-2-19T13:04:18Z
2021-02-19T11:06:17Z,42.805,6.029,13.2977,4.59988,2470.25,2021-2-19T13:07:21Z
2021-02-19T11:09:20Z,42.805,6.029,13.2982,4.59988,2470.24,2021-2-19T13:10:24Z
2021-02-19T11:12:23Z,42.805,6.029,13.2982,4.59988,2470.203,2021-2-19T13:13:27Z
2021-02-19T11:15:26Z,42.805,6.029,13.2978,4.59989,2470.24,2021-2-19T13:16:30Z
2021-02-19T11:18:29Z,42.805,6.029,13.2981,4.59987,2470.25,2021-2-19T13:19:33Z
2021-02-19T11:21:32Z,42.805,6.029,13.2981,4.59986,2470.227,2021-2-19T13:22:37Z
2021-02-19T11:24:36Z,42.805,6.029,13.2979,4.59988,2470.227,2021-2-19T13:25:40Z
2021-02-19T11:27:39Z,42.805,6.029,13.2982,4.59987,2470.25,2021-2-19T13:28:43Z
2021-02-19T11:30:42Z,42.805,6.029,13.2983,4.59987,2470.227,2021-2-19T13:31:46Z
2021-02-19T11:33:45Z,42.805,6.029,13.2976,4.59988,2470.227,2021-2-19T13:34:49Z
2021-02-19T11:36:48Z,42.805,6.029,13.2983,4.59987,2470.264,2021-2-19T13:37:52Z
2021-02-19T11:39:51Z,42.805,6.029,13.2979,4.59986,2470.227,2021-2-19T13:40:55Z
2021-02-19T11:42:54Z,42.805,6.029,13.2979,4.59987,2470.203,2021-2-19T13:43:58Z
2021-02-19T11:45:57Z,42.805,6.029,13.2982,4.59988,2470.227,2021-2-19T13:47:02Z
2021-02-19T11:49:01Z,42.805,6.029,13.2980,4.59986,2470.264,2021-2-19T13:50:05Z
2021-02-19T11:52:04Z,42.805,6.029,13.2980,4.59987,2470.264,2021-2-19T13:53:08Z
2021-02-19T11:55:07Z,42.805,6.029,13.2979,4.59986,2470.287,2021-2-19T13:56:11Z
2021-02-19T11:58:10Z,42.805,6.029,13.2977,4.59987,2470.25,2021-2-19T13:59:14Z
2021-02-19T12:01:13Z,42.805,6.029,13.2979,4.59987,2470.25,2021-2-19T14:02:17Z
2021-02-19T12:04:16Z,42.805,6.029,13.2983,4.59986,2470.24,2021-2-19T14:05:20Z
2021-02-19T12:07:19Z,42.805,6.029,13.2983,4.59986,2470.264,2021-2-19T14:08:23Z
2021-02-19T12:10:22Z,42.805,6.029,13.2980,4.59986,2470.227,2021-2-19T14:11:27Z
2021-02-19T12:13:26Z,42.805,6.029,13.2981,4.59985,2470.264,2021-2-19T14:14:30Z
2021-02-19T12:16:29Z,42.805,6.029,13.2982,4.59987,2470.227,2021-2-19T14:17:33Z
2021-02-19T12:19:32Z,42.805,6.029,13.2983,4.59986,2470.24,2021-2-19T14:20:36Z
2021-02-19T12:22:35Z,42.805,6.029,13.2981,4.59986,2470.217,2021-2-19T14:23:39Z
2021-02-19T12:25:38Z,42.805,6.029,13.2982,4.59988,2470.227,2021-2-19T14:26:42Z
2021-02-19T12:28:41Z,42.805,6.029,13.2980,4.59986,2470.217,2021-2-19T14:29:45Z
2021-02-19T12:31:44Z,42.805,6.029,13.2983,4.59986,2470.25,2021-2-19T14:32:49Z
2021-02-19T12:34:47Z,42.805,6.029,13.2982,4.59987,2470.227,2021-2-19T14:35:52Z
2021-02-19T12:37:51Z,42.805,6.029,13.2978,4.59989,2470.273,2021-2-19T14:38:55Z
2021-02-19T12:40:54Z,42.805,6.029,13.2977,4.59986,2470.203,2021-2-19T14:41:58Z
2021-02-19T12:43:57Z,42.805,6.029,13.2981,4.59988,2470.227,2021-2-19T14:45:01Z
2021-02-19T12:47:00Z,42.805,6.029,13.2980,4.59985,2470.227,2021-2-19T14:48:04Z
2021-02-19T12:50:03Z,42.805,6.029,13.2978,4.59985,2470.227,2021-2-19T14:51:07Z
2021-02-19T12:53:06Z,42.805,6.029,13.2981,4.59986,2470.18,2021-2-19T14:54:10Z
2021-02-19T12:56:09Z,42.805,6.029,13.2985,4.59988,2470.217,2021-2-19T14:57:14Z
2021-02-19T12:59:12Z,42.805,6.029,13.2979,4.59986,2470.227,2021-2-19T15:00:17Z
2021-02-19T13:02:16Z,42.805,6.029,13.2980,4.59985,2470.217,2021-2-19T15:03:20Z
2021-02-19T13:05:19Z,42.805,6.029,13.2979,4.59986,2470.25,2021-2-19T15:06:23Z
2021-02-19T13:08:22Z,42.805,6.029,13.2978,4.59985,2470.25,2021-2-19T15:09:26Z
2021-02-19T13:11:25Z,42.805,6.029,13.2978,4.59985,2470.227,2021-2-19T15:12:29Z
2021-02-19T13:14:28Z,42.805,6.029,13.2980,4.59988,2470.24,2021-2-19T15:15:32Z
2021-02-19T13:17:31Z,42.805,6.029,13.2976,4.59986,2470.18,2021-2-19T15:18:35Z
2021-02-19T13:20:34Z,42.805,6.029,13.2979,4.59985,2470.24,2021-2-19T15:21:39Z
2021-02-19T13:23:37Z,42.805,6.029,13.2981,4.59985,2470.227,2021-2-19T15:24:42Z
2021-02-19T13:26:41Z,42.805,6.029,13.2983,4.59984,2470.203,2021-2-19T15:27:45Z
2021-02-19T13:29:44Z,42.805,6.029,13.2978,4.59985,2470.217,2021-2-19T15:30:48Z
2021-02-19T13:32:47Z,42.805,6.029,13.2982,4.59985,2470.227,2021-2-19T15:33:51Z
2021-02-19T13:35:50Z,42.805,6.029,13.2977,4.59986,2470.203,2021-2-19T15:36:54Z
2021-02-19T13:38:53Z,42.805,6.029,13.2977,4.59986,2470.217,2021-2-19T15:39:57Z
2021-02-19T13:41:56Z,42.805,6.029,13.2979,4.59986,2470.189,2021-2-19T15:43:00Z
2021-02-19T13:44:59Z,42.805,6.029,13.2981,4.59985,2470.264,2021-2-19T15:46:04Z
2021-02-19T13:48:02Z,42.805,6.029,13.2980,4.59985,2470.194,2021-2-19T15:49:07Z
2021-02-19T13:51:06Z,42.805,6.029,13.2979,4.59985,2470.24,2021-2-19T15:52:10Z
2021-02-19T13:54:09Z,42.805,6.029,13.2985,4.59985,2470.194,2021-2-19T15:55:13Z
2021-02-19T13:57:12Z,42.805,6.029,13.2976,4.59985,2470.24,2021-2-19T15:58:16Z
2021-02-19T14:00:15Z,42.805,6.029,13.2982,4.59986,2470.24,2021-2-19T16:01:19Z
2021-02-19T14:03:18Z,42.805,6.029,13.2977,4.59985,2470.194,2021-2-19T16:04:22Z
2021-02-19T14:06:21Z,42.805,6.029,13.2984,4.59986,2470.227,2021-2-19T16:07:26Z
2021-02-19T14:09:24Z,42.805,6.029,13.2981,4.59988,2470.227,2021-2-19T16:10:29Z
2021-02-19T14:12:28Z,42.805,6.029,13.2976,4.59985,2470.217,2021-2-19T16:13:32Z
2021-02-19T14:15:31Z,42.805,6.029,13.2979,4.59986,2470.156,2021-2-19T16:16:35Z
2021-02-19T14:18:34Z,42.805,6.029,13.2976,4.59986,2470.18,2021-2-19T16:19:38Z
2021-02-19T14:21:37Z,42.805,6.029,13.2979,4.59986,2470.217,2021-2-19T16:22:41Z
2021-02-19T14:24:40Z,42.805,6.029,13.2983,4.59986,2470.217,2021-2-19T16:25:44Z
2021-02-19T14:27:43Z,42.805,6.029,13.2981,4.59986,2470.217,2021-2-19T16:28:47Z
2021-02-19T14:30:46Z,42.805,6.029,13.2982,4.59987,2470.194,2021-2-19T16:31:51Z
2021-02-19T14:33:49Z,42.805,6.029,13.2979,4.59986,2470.217,2021-2-19T16:34:54Z
2021-02-19T14:36:53Z,42.805,6.029,13.2979,4.59986,2470.189,2021-2-19T16:37:57Z
2021-02-19T14:39:56Z,42.805,6.029,13.2981,4.59986,2470.217,2021-2-19T16:41:00Z
2021-02-19T14:42:59Z,42.805,6.029,13.2979,4.59986,2470.217,2021-2-19T16:44:03Z
2021-02-19T14:46:02Z,42.805,6.029,13.2983,4.59988,2470.18,2021-2-19T16:47:06Z
2021-02-19T14:49:05Z,42.805,6.029,13.2980,4.59986,2470.227,2021-2-19T16:50:09Z
2021-02-19T14:52:08Z,42.805,6.029,13.2982,4.59986,2470.203,2021-2-19T16:53:12Z
2021-02-19T14:55:11Z,42.805,6.029,13.2979,4.59986,2470.203,2021-2-19T16:56:16Z
2021-02-19T14:58:14Z,42.805,6.029,13.2982,4.59986,2470.203,2021-2-19T16:59:19Z
2021-02-19T15:01:18Z,42.805,6.029,13.2982,4.59987,2470.24,2021-2-19T17:02:22Z
2021-02-19T15:04:21Z,42.805,6.029,13.2980,4.59986,2470.203,2021-2-19T17:05:25Z
2021-02-19T15:07:24Z,42.805,6.029,13.2982,4.59987,2470.171,2021-2-19T17:08:28Z
2021-02-19T15:10:27Z,42.805,6.029,13.2976,4.59986,2470.18,2021-2-19T17:11:31Z